Weather History for KVLL - December, 2011

Change the Weather History Date:

Friday, December 9, 2011

  Actual Average (KDET) Record (KDET)
Temperature  
Mean Temperature 30 °F -  
Max Temperature 32 °F 38 °F 58 °F (1991)
Min Temperature 28 °F 28 °F 6 °F (1958)
Degree Days  
Heating Degree Days 35    
Moisture  
Dew Point 25 °F    
Average Humidity 80    
Maximum Humidity 93    
Minimum Humidity 55    
Precipitation  
Precipitation 0.00 in - - ()
Sea Level Pressure  
Sea Level Pressure 30.19 in    
Wind  
Wind Speed 7 mph (WSW)    
Max Wind Speed 15 mph    
Max Gust Speed 21 mph    
Visibility 6 miles    
Events Snow    
Averages and records for this station are not official NWS values.
T = Trace of Precipitation, MM = Missing Value Source: NWS Daily Summary

Daily Weather History Graph

Daily Weather History Graph

Search for Another Location

Airport or City:

Trip Planner

Search our weather history database for the weather conditions in past years. The results will help you decide how hot, cold, wet, or windy it might be!

Date:

Astronomy

Dec. 09, 2011 Rise Set
Actual Time 7:50 AM EST 4:59 PM EST
Civil Twilight 7:18 AM EST 5:31 PM EST
Nautical Twilight 6:43 AM EST 6:06 PM EST
Astronomical Twilight 6:09 AM EST 6:40 PM EST
Moon 4:21 PM EST (12/9) 6:57 AM EST (12/9)
Length of Visible Light 10h 12m
Length of Day
9h 08m
Waxing Gibbous, 99% of the Moon is Illuminated
Dec 9
Waxing Gibbous
Dec 10
Full
Dec 17
Last Quarter
Dec 24
New
Jan 1
First Quarter

Hourly Weather History & Observations

Time (EST) Temp. Windchill Dew Point Humidity Pressure Visibility Wind Dir Wind Speed Gust Speed Precip Events Conditions
12:15 AM 32.0 °F 26.4 °F 26.6 °F 80% 30.18 in 7.0 mi SSW 5.8 mph - N/A   Overcast
12:34 AM 32.0 °F 25.6 °F 26.6 °F 80% 30.18 in 7.0 mi SSW 6.9 mph - N/A   Overcast
12:55 AM 32.0 °F 24.8 °F 26.6 °F 80% 30.18 in 7.0 mi SSW 8.1 mph - N/A   Overcast
1:14 AM 32.0 °F 26.4 °F 26.6 °F 80% 30.17 in 7.0 mi SSW 5.8 mph - N/A   Overcast
1:35 AM 32.0 °F 26.4 °F 26.6 °F 80% 30.17 in 7.0 mi SSW 5.8 mph - N/A   Overcast
1:55 AM 32.0 °F 25.6 °F 26.6 °F 80% 30.17 in 7.0 mi SSW 6.9 mph - N/A   Overcast
2:14 AM 32.0 °F 25.6 °F 26.6 °F 80% 30.17 in 7.0 mi SSW 6.9 mph - N/A   Overcast
2:35 AM 32.0 °F 25.6 °F 26.6 °F 80% 30.17 in 7.0 mi SSW 6.9 mph - N/A   Overcast
2:55 AM 32.0 °F 25.6 °F 26.6 °F 80% 30.17 in 7.0 mi SW 6.9 mph - N/A   Overcast
3:14 AM 32.0 °F 25.6 °F 28.4 °F 87% 30.17 in 3.0 mi SW 6.9 mph - N/A Snow Light Snow
3:35 AM 32.0 °F 24.8 °F 28.4 °F 87% 30.17 in 2.0 mi SW 8.1 mph - N/A Snow Light Snow
3:55 AM 32.0 °F 26.4 °F 28.4 °F 87% 30.16 in 2.5 mi SSW 5.8 mph - N/A Snow Light Snow
4:14 AM 32.0 °F 26.4 °F 30.2 °F 93% 30.16 in 1.8 mi SSW 5.8 mph - N/A Snow Light Snow
4:35 AM 32.0 °F 24.8 °F 30.2 °F 93% 30.16 in 2.0 mi SSW 8.1 mph - N/A Snow Light Snow
4:54 AM 32.0 °F 25.6 °F 30.2 °F 93% 30.16 in 1.5 mi SSW 6.9 mph - N/A Snow Light Snow
5:15 AM 32.0 °F 26.4 °F 30.2 °F 93% 30.16 in 1.0 mi SSW 5.8 mph - N/A Snow Light Snow
5:35 AM 32.0 °F 26.4 °F 30.2 °F 93% 30.17 in 1.5 mi SSW 5.8 mph - N/A Snow Light Snow
5:54 AM 32.0 °F 25.6 °F 30.2 °F 93% 30.16 in 2.0 mi SSW 6.9 mph - N/A Snow Light Snow
6:15 AM 32.0 °F 26.4 °F 30.2 °F 93% 30.16 in 1.8 mi SSW 5.8 mph - N/A Snow Light Snow
6:35 AM 32.0 °F 27.5 °F 30.2 °F 93% 30.16 in 2.0 mi SW 4.6 mph - N/A Snow Light Snow
6:54 AM 32.0 °F 27.5 °F 30.2 °F 93% 30.16 in 2.5 mi SW 4.6 mph - N/A Snow Light Snow
7:15 AM 32.0 °F 28.7 °F 30.2 °F 93% 30.16 in 3.0 mi SW 3.5 mph - N/A Snow Light Snow
7:34 AM 32.0 °F 27.5 °F 30.2 °F 93% 30.16 in 2.5 mi SW 4.6 mph - N/A Snow Light Snow
8:15 AM 32.0 °F 27.5 °F 30.2 °F 93% 30.16 in 2.0 mi SW 4.6 mph - N/A Snow Light Snow
8:34 AM 32.0 °F 26.4 °F 30.2 °F 93% 30.17 in 1.8 mi SW 5.8 mph - N/A Snow Light Snow
8:55 AM 32.0 °F 26.4 °F 30.2 °F 93% 30.17 in 1.8 mi SW 5.8 mph - N/A Snow Light Snow
9:15 AM 32.0 °F 26.4 °F 30.2 °F 93% 30.18 in 2.0 mi SW 5.8 mph - N/A Snow Light Snow
9:35 AM 32.0 °F 26.4 °F 30.2 °F 93% 30.18 in 2.5 mi SW 5.8 mph - N/A Snow Light Snow
9:55 AM 32.0 °F 27.5 °F 30.2 °F 93% 30.18 in 2.0 mi SW 4.6 mph - N/A Snow Light Snow
10:14 AM 32.0 °F 26.4 °F 30.2 °F 93% 30.19 in 1.5 mi SW 5.8 mph - N/A Snow Light Snow
10:35 AM 32.0 °F 27.5 °F 30.2 °F 93% 30.19 in 1.5 mi SW 4.6 mph - N/A Snow Light Snow
10:55 AM 32.0 °F 22.5 °F 28.4 °F 87% 30.20 in 1.8 mi WNW 12.7 mph 16.1 mph N/A Snow Light Snow
11:15 AM 32.0 °F 25.6 °F 26.6 °F 80% 30.20 in 5.0 mi NW 6.9 mph - N/A Snow Light Snow
11:35 AM 32.0 °F 24.2 °F 26.6 °F 80% 30.20 in 7.0 mi WNW 9.2 mph - N/A   Overcast
11:55 AM 32.0 °F 24.8 °F 26.6 °F 80% 30.20 in 7.0 mi WNW 8.1 mph - N/A   Overcast
12:14 PM 30.2 °F 21.9 °F 26.6 °F 86% 30.20 in 7.0 mi WNW 9.2 mph - N/A Snow Light Snow
12:35 PM 30.2 °F 20.2 °F 26.6 °F 86% 30.20 in 10.0 mi West 12.7 mph - N/A   Overcast
12:55 PM 30.2 °F 20.2 °F 24.8 °F 80% 30.19 in 10.0 mi West 12.7 mph - N/A   Overcast
1:15 PM 30.2 °F 20.2 °F 23.0 °F 75% 30.19 in 10.0 mi WNW 12.7 mph - N/A   Overcast
1:35 PM 30.2 °F 19.3 °F 21.2 °F 69% 30.19 in 10.0 mi West 15.0 mph 20.7 mph N/A   Overcast
1:54 PM 30.2 °F 20.8 °F 21.2 °F 69% 30.19 in 10.0 mi West 11.5 mph 19.6 mph N/A   Overcast
2:15 PM 30.2 °F 20.2 °F 21.2 °F 69% 30.19 in 10.0 mi West 12.7 mph - N/A   Overcast
2:35 PM 30.2 °F 21.9 °F 21.2 °F 69% 30.20 in 10.0 mi West 9.2 mph - N/A   Overcast
2:54 PM 30.2 °F 21.9 °F 21.2 °F 69% 30.20 in 10.0 mi West 9.2 mph - N/A   Overcast
3:15 PM 30.2 °F 19.8 °F 21.2 °F 69% 30.20 in 10.0 mi WNW 13.8 mph 17.3 mph N/A   Overcast
3:35 PM 30.2 °F 20.2 °F 19.4 °F 64% 30.21 in 10.0 mi West 12.7 mph 17.3 mph N/A   Mostly Cloudy
3:54 PM 30.2 °F 21.3 °F 19.4 °F 64% 30.22 in 10.0 mi West 10.4 mph - N/A   Scattered Clouds
4:15 PM 30.2 °F 20.8 °F 17.6 °F 60% 30.23 in 10.0 mi WSW 11.5 mph - N/A   Scattered Clouds
4:35 PM 30.2 °F 21.3 °F 17.6 °F 60% 30.24 in 10.0 mi West 10.4 mph - N/A   Scattered Clouds
5:15 PM 30.2 °F 22.6 °F 17.6 °F 60% 30.25 in 10.0 mi West 8.1 mph - N/A   Clear
5:34 PM 28.4 °F 22.2 °F 17.6 °F 64% 30.25 in 10.0 mi West 5.8 mph - N/A   Clear
5:55 PM 28.4 °F 21.2 °F 15.8 °F 59% 30.26 in 10.0 mi West 6.9 mph - N/A   Clear
6:15 PM 28.4 °F 22.2 °F 15.8 °F 59% 30.27 in 10.0 mi West 5.8 mph - N/A   Clear
6:34 PM 28.4 °F 22.2 °F 15.8 °F 59% 30.28 in 10.0 mi West 5.8 mph - N/A   Clear
6:55 PM 28.4 °F 20.4 °F 15.8 °F 59% 30.29 in 10.0 mi West 8.1 mph - N/A   Clear
7:15 PM 28.4 °F 21.2 °F 14.0 °F 55% 30.30 in 10.0 mi West 6.9 mph - N/A   Clear
7:35 PM 26.6 °F 18.2 °F 14.0 °F 59% 30.31 in 10.0 mi WSW 8.1 mph - N/A   Clear
7:55 PM 26.6 °F 20.0 °F 14.0 °F 59% 30.31 in 10.0 mi West 5.8 mph - N/A   Clear
8:14 PM 26.6 °F 16.8 °F 14.0 °F 59% 30.32 in 10.0 mi West 10.4 mph - N/A   Clear
8:35 PM 26.6 °F 15.7 °F 14.0 °F 59% 30.33 in 10.0 mi West 12.7 mph 17.3 mph N/A   Clear
8:54 PM 26.6 °F 16.8 °F 14.0 °F 59% 30.33 in 10.0 mi West 10.4 mph - N/A   Clear
9:15 PM 26.6 °F 19.1 °F 14.0 °F 59% 30.33 in 10.0 mi West 6.9 mph - N/A   Clear
9:35 PM 26.6 °F 17.5 °F 14.0 °F 59% 30.33 in 10.0 mi West 9.2 mph - N/A   Clear
9:54 PM 24.8 °F 16.1 °F 14.0 °F 64% 30.34 in 10.0 mi West 8.1 mph - N/A   Clear
10:15 PM 24.8 °F 17.9 °F 14.0 °F 64% 30.34 in 10.0 mi West 5.8 mph - N/A   Clear
10:35 PM 23.0 °F 17.0 °F 14.0 °F 68% 30.34 in 10.0 mi WSW 4.6 mph - N/A   Clear
10:55 PM 23.0 °F 17.0 °F 14.0 °F 68% 30.34 in 10.0 mi WSW 4.6 mph - N/A   Clear
11:15 PM 23.0 °F 15.8 °F 14.0 °F 68% 30.34 in 10.0 mi WSW 5.8 mph - N/A   Clear
11:34 PM 23.0 °F 17.0 °F 14.0 °F 68% 30.35 in 10.0 mi WSW 4.6 mph - N/A   Clear
11:55 PM 23.0 °F 18.4 °F 14.0 °F 68% 30.35 in 10.0 mi West 3.5 mph - N/A   Clear